KC5MK Weather Reports


Display with metric or nautical units.
time (UTC)temp
F
wind
direction
speed
MPH
gust
MPH
rain 1hr
in
rain 24hr
in
rain mn
in
humidity
%
barometer
mb
20260509200028 86 163 2.0 7.0 0.00 0.00 0.00 42 1007.4
20260509194524 86 138 0.0 4.0 0.00 0.00 0.00 44 1007.5
20260509193024 86 85 3.0 8.0 0.00 0.00 0.00 46 1007.7
20260509191523 86 138 2.0 5.0 0.00 0.00 0.00 48 1007.9
20260509190021 85 211 2.0 8.0 0.00 0.00 0.00 47 1008.1
20260509184526 85 62 1.0 5.0 0.00 0.00 0.00 49 1008.2
20260509183018 84 88 2.0 6.0 0.00 0.00 0.00 50 1008.3
20260509181514 83 110 0.0 3.0 0.00 0.00 0.00 53 1008.4
20260509180014 83 100 3.0 6.0 0.00 0.00 0.00 55 1008.5
20260509174513 82 84 1.0 8.0 0.00 0.00 0.00 59 1008.8
20260509173013 83 93 2.0 6.0 0.00 0.00 0.00 57 1008.9
20260509171522 82 73 0.0 5.0 0.00 0.00 0.00 57 1009.0
20260509170024 82 64 1.0 4.0 0.00 0.00 0.00 59 1009.1
20260509164507 81 332 0.0 4.0 0.00 0.00 0.00 59 1009.3
20260509163008 81 305 1.0 6.0 0.00 0.00 0.00 60 1009.4
20260509161504 80 310 1.0 4.0 0.00 0.00 0.00 61 1009.5
20260509160002 78 293 0.0 6.0 0.00 0.00 0.00 67 1009.7
20260509154603 77 256 1.0 6.0 0.00 0.00 0.00 65 1009.7
20260509153102 76 270 2.0 8.0 0.00 0.00 0.00 65 1009.8
20260509151603 76 296 1.0 4.0 0.00 0.00 0.00 65 1009.7
20260509151501 76 294 1.0 4.0 0.00 0.00 0.00 66 1009.7
20260509150059 74 270 0.0 6.0 0.00 0.00 0.00 69 1009.7
20260509144559 74 261 1.0 4.0 0.00 0.00 0.00 67 1009.9
20260509143058 74 263 0.0 6.0 0.00 0.00 0.00 68 1010.0
20260509141558 75 249 0.0 5.0 0.00 0.00 0.00 70 1010.0
20260509140104 74 318 0.0 2.0 0.00 0.00 0.00 70 1010.0
20260509134626 73 318 0.0 4.0 0.00 0.00 0.00 71 1009.8
20260509133059 70 266 1.0 3.0 0.00 0.00 0.00 78 1009.9
20260509131556 68 264 0.0 2.0 0.00 0.00 0.00 81 1009.9
20260509130055 67 264 0.0 0.0 0.00 0.00 0.00 84 1010.0
20260509124555 65 264 0.0 1.0 0.00 0.01 0.00 86 1009.9
20260509123055 64 264 0.0 0.0 0.00 0.01 0.00 87 1009.7
20260509121556 63 264 0.0 0.0 0.00 0.01 0.00 88 1009.4
20260509120056 62 264 0.0 1.0 0.00 0.01 0.00 88 1009.2
20260509114554 62 264 0.0 0.0 0.00 0.01 0.00 87 1009.0
20260509113053 63 264 0.0 2.0 0.00 0.01 0.00 87 1008.8
20260509111547 63 264 0.0 1.0 0.00 0.01 0.00 86 1008.9
20260509110045 65 264 0.0 0.0 0.00 0.01 0.00 84 1008.7
20260509104544 65 264 0.0 1.0 0.00 0.02 0.00 84 1008.9
20260509103043 65 264 0.0 8.0 0.00 0.02 0.00 85 1008.9
20260509101550 65 246 4.0 7.0 0.00 0.02 0.00 85 1009.0
20260509100039 66 104 0.0 0.0 0.00 0.02 0.00 84 1008.2
20260509094538 67 104 0.0 3.0 0.00 0.07 0.00 83 1007.6
20260509093036 67 45 1.0 7.0 0.00 0.07 0.00 82 1007.0
20260509091534 67 56 2.0 6.0 0.00 0.07 0.00 81 1006.7
20260509090034 68 77 2.0 8.0 0.00 0.07 0.00 81 1006.3
20260509084532 68 83 1.0 5.0 0.00 0.07 0.00 79 1006.1
20260509083041 69 55 2.0 12.0 0.00 0.07 0.00 76 1006.1
20260509081534 72 100 1.0 10.0 0.00 0.07 0.00 67 1006.1
20260509080034 74 73 4.0 11.0 0.00 0.07 0.00 58 1006.3
20260509074530 76 34 0.0 14.0 0.00 0.07 0.00 57 1006.3
20260509073028 76 192 6.0 24.0 0.00 0.07 0.00 48 1005.5
20260509071525 70 58 2.0 15.0 0.00 0.07 0.00 80 1006.4
20260509070025 75 256 5.0 14.0 0.00 0.07 0.00 66 1007.5
20260509064520 70 186 8.0 16.0 0.00 0.07 0.00 85 1008.1
20260509063018 69 213 5.0 7.0 0.00 0.07 0.00 87 1008.6
20260509061513 69 213 5.0 11.0 0.00 0.07 0.00 88 1008.9
20260509060010 69 215 6.0 10.0 0.00 0.07 0.00 88 1009.4
20260509054508 68 238 5.0 8.0 0.00 0.07 0.00 89 1010.1
20260509053007 68 260 1.0 5.0 0.00 0.07 0.00 89 1010.5
20260509051503 69 265 0.0 5.0 0.00 0.07 0.00 87 1010.1
20260509050108 69 212 2.0 4.0 0.00 0.07 0.00 87 1009.8
20260509044600 69 90 0.0 3.0 0.00 0.07 0.07 88 1010.9
20260509044504 69 87 0.0 3.0 0.00 0.07 0.07 88 1011.0
20260509043106 68 87 2.0 6.0 0.00 0.07 0.07 89 1010.9
20260509041700 68 41 1.0 9.0 0.00 0.07 0.07 89 1010.3
20260509040058 68 148 1.0 3.0 0.00 0.07 0.07 88 1008.8
20260509034559 68 144 0.0 2.0 0.00 0.07 0.07 88 1008.5
20260509033100 68 127 3.0 6.0 0.00 0.07 0.07 87 1008.5
20260509031659 68 116 3.0 7.0 0.00 0.07 0.07 87 1008.4
20260509030057 68 125 4.0 9.0 0.00 0.07 0.07 87 1008.3
20260509024556 69 108 4.0 7.0 0.00 0.07 0.07 86 1007.8
20260509023055 69 160 2.0 4.0 0.00 0.07 0.07 86 1007.3
20260509021656 70 165 0.0 5.0 0.00 0.07 0.07 85 1007.0
20260509020054 70 151 2.0 6.0 0.00 0.07 0.07 84 1006.1
20260509014556 70 181 4.0 12.0 0.00 0.07 0.07 84 1005.9
20260509013056 71 166 4.0 7.0 0.00 0.07 0.07 82 1005.9
20260509011653 71 171 2.0 6.0 0.00 0.07 0.07 81 1006.3
20260509010051 72 151 2.0 6.0 0.00 0.07 0.07 79 1006.5
20260509004606 73 178 2.0 5.0 0.00 0.07 0.07 77 1006.6
20260509003051 73 153 2.0 9.0 0.00 0.07 0.07 76 1006.6
20260509001553 74 154 4.0 10.0 0.00 0.07 0.07 75 1006.5
20260509000051 74 183 4.0 10.0 0.00 0.07 0.07 75 1006.3
20260508234547 75 181 4.0 10.0 0.00 0.07 0.07 72 1006.3
20260508233046 75 177 4.0 10.0 0.00 0.07 0.07 72 1006.6
20260508231545 75 156 6.0 12.0 0.00 0.07 0.07 71 1006.6
20260508230044 76 154 5.0 11.0 0.00 0.07 0.07 68 1006.8
20260508224549 76 149 7.0 12.0 0.00 0.07 0.07 69 1006.8
20260508223048 76 197 7.0 12.0 0.00 0.07 0.07 68 1006.9
20260508221541 76 225 4.0 10.0 0.00 0.07 0.07 68 1006.8
20260508220039 76 214 4.0 10.0 0.00 0.07 0.07 69 1006.8
20260508214556 75 157 6.0 12.0 0.00 0.07 0.07 68 1007.0
20260508213038 76 157 4.0 10.0 0.00 0.07 0.07 69 1007.0
20260508211534 76 176 4.0 11.0 0.00 0.07 0.07 69 1007.1
20260508210035 75 143 8.0 13.0 0.00 0.07 0.07 69 1007.2
20260508204528 75 160 6.0 12.0 0.00 0.07 0.07 69 1007.5
20260508203025 74 148 7.0 14.0 0.00 0.07 0.07 70 1007.8
20260508201522 74 168 5.0 13.0 0.00 0.07 0.07 70 1008.3